CW9203 Weather Reports


time (UTC)temp
F
wind
direction
speed
knots
gust
knots
rain 1hr
in
rain 24hr
in
rain mn
in
humidity
%
barometer
mb
20260503214303 58 155 2.6 5.2 0.00 0.00 0.00 4 1036.2
20260503213303 58 132 2.6 5.2 0.00 0.00 0.00 4 1036.2
20260503212804 59 152 2.6 4.3 0.00 0.00 0.00 4 1036.2
20260503211804 59 135 0.9 4.3 0.00 0.00 0.00 4 1036.3
20260503205804 58 103 1.7 2.6 0.00 0.00 0.00 4 1036.4
20260503205304 58 242 0.0 2.6 0.00 0.00 0.00 4 1036.4
20260503204303 58 113 0.9 2.6 0.00 0.00 0.00 4 1036.4
20260503203804 57 160 0.9 2.6 0.00 0.00 0.00 4 1036.5
20260503202304 57 123 0.9 2.6 0.00 0.00 0.00 4 1036.5
20260503200804 56 109 0.0 1.7 0.00 0.00 0.00 4 1036.4
20260503195304 56 131 0.0 0.9 0.00 0.00 0.00 4 1036.3
20260503193303 56 170 0.0 1.7 0.00 0.00 0.00 4 1036.1
20260503192804 56 139 0.0 1.7 0.00 0.00 0.00 4 1036.1
20260503192305 56 118 0.0 0.9 0.00 0.00 0.00 4 1036.0
20260503191804 56 162 0.9 2.6 0.00 0.00 0.00 4 1036.0
20260503191304 56 130 0.9 2.6 0.00 0.00 0.00 4 1035.9
20260503183803 56 137 0.0 0.0 0.00 0.00 0.00 4 1035.7
20260503182804 56 144 0.9 0.9 0.00 0.00 0.00 4 1035.5
20260503181804 56 123 0.0 1.7 0.00 0.00 0.00 4 1035.4
20260503180304 56 125 0.0 0.0 0.00 0.00 0.00 4 1035.4
20260503175804 56 126 0.0 0.9 0.00 0.00 0.00 4 1035.4
20260503175305 56 124 0.9 0.9 0.00 0.00 0.00 4 1035.4
20260503174804 56 126 0.0 0.9 0.00 0.00 0.00 4 1035.4
20260503173303 56 107 0.9 2.6 0.00 0.00 0.00 4 1035.2
20260503172804 56 126 0.9 2.6 0.00 0.00 0.00 4 1035.1
20260503172305 55 115 0.9 1.7 0.00 0.00 0.00 4 1035.2
20260503171304 55 170 0.0 0.9 0.00 0.00 0.00 4 1035.2
20260503150304 56 122 0.0 1.7 0.00 0.00 0.00 4 1035.4
20260503131304 57 126 1.7 4.3 0.00 0.00 0.00 4 1036.1
20260503130304 57 132 1.7 2.6 0.00 0.00 0.00 4 1036.1
20260503110804 56 92 0.9 0.9 0.00 0.00 0.00 4 1036.0
20260503090303 57 139 0.9 1.7 0.00 0.00 0.00 4 1035.3
20260503081304 57 138 0.0 0.0 0.00 0.00 0.00 6 1035.1
20260503080303 57 156 0.9 1.7 0.00 0.00 0.00 6 1035.1
20260503072804 58 132 0.0 1.7 0.00 0.00 0.00 25 1034.7
20260503072305 58 171 0.0 0.9 0.00 0.00 0.00 30 1034.7
20260503054804 61 26 0.9 2.6 0.00 0.00 0.00 62 1034.1
20260503053304 62 13 0.0 1.7 0.00 0.00 0.00 63 1034.1
20260503052803 62 27 0.9 1.7 0.00 0.00 0.00 63 1034.1
20260503050804 62 15 0.9 4.3 0.00 0.00 0.00 64 1034.0
20260503050304 62 27 1.7 4.3 0.00 0.00 0.00 64 1034.0
20260503043304 63 9 2.6 5.2 0.00 0.00 0.00 65 1034.1
20260503041803 64 53 1.7 2.6 0.00 0.00 0.00 64 1034.1
20260503040804 64 6 0.0 2.6 0.00 0.00 0.00 64 1034.2
20260503040303 64 19 0.0 0.9 0.00 0.00 0.00 64 1034.2
20260503034804 64 58 0.9 4.3 0.00 0.00 0.00 64 1034.1
20260503034304 64 49 0.9 2.6 0.00 0.00 0.00 64 1034.1
20260503033804 64 18 2.6 4.3 0.00 0.00 0.00 64 1034.1
20260503033303 64 58 1.7 2.6 0.00 0.00 0.00 64 1034.2
20260503025305 65 49 0.9 1.7 0.00 0.00 0.00 64 1034.1
20260503022803 64 20 2.6 5.2 0.00 0.00 0.00 64 1034.2
20260503021804 64 80 2.6 5.2 0.00 0.00 0.00 64 1034.3
20260503021303 65 80 1.7 4.3 0.00 0.00 0.00 64 1034.3
20260503020304 65 63 1.7 5.2 0.00 0.00 0.00 64 1034.4
20260503015305 65 24 0.9 5.2 0.00 0.00 0.00 64 1034.4
20260503014804 65 115 2.6 6.1 0.00 0.00 0.00 64 1034.5
20260503014304 65 10 3.5 4.3 0.00 0.00 0.00 64 1034.5
20260503013304 66 123 2.6 5.2 0.00 0.00 0.00 63 1034.6
20260503012305 65 56 2.6 5.2 0.00 0.00 0.00 63 1034.7
20260503011804 65 56 1.7 2.6 0.00 0.00 0.00 64 1034.7
20260503010304 64 44 0.9 2.6 0.00 0.00 0.00 64 1035.0
20260503005804 65 134 0.9 2.6 0.00 0.00 0.00 64 1035.1
20260503004804 64 85 1.7 4.3 0.00 0.00 0.00 64 1035.1
20260503004303 64 49 1.7 6.1 0.00 0.00 0.00 64 1035.2
20260503003804 64 105 1.7 2.6 0.00 0.00 0.00 64 1035.3
20260503003303 64 140 2.6 5.2 0.00 0.00 0.00 64 1035.3
20260503002803 64 147 1.7 6.1 0.00 0.00 0.00 64 1035.4
20260503002305 64 118 2.6 5.2 0.00 0.00 0.00 64 1035.5
20260503000304 64 95 2.6 6.1 0.00 0.00 0.00 63 1035.8
20260502235305 63 122 2.6 4.3 0.00 0.00 0.00 63 1036.0
20260502234304 63 138 2.6 5.2 0.00 0.00 0.00 63 1036.1
20260502233804 63 132 2.6 5.2 0.00 0.00 0.00 63 1036.2
20260502232305 62 138 1.7 4.3 0.00 0.00 0.00 57 1036.4
20260502231304 62 145 1.7 5.2 0.00 0.00 0.00 58 1036.5
20260502230804 62 134 2.6 5.2 0.00 0.00 0.00 60 1036.5
20260502225803 61 165 1.7 5.2 0.00 0.00 0.00 54 1036.6
20260502224304 60 124 1.7 5.2 0.00 0.00 0.00 36 1036.6
20260502222803 60 103 2.6 4.3 0.00 0.00 0.00 40 1036.7
20260502221304 60 133 0.9 2.6 0.00 0.00 0.00 44 1036.7
20260502220304 59 132 1.7 4.3 0.00 0.00 0.00 40 1036.7
20260502215804 59 133 1.7 2.6 0.00 0.00 0.00 38 1036.8
20260502215305 59 125 0.9 4.3 0.00 0.00 0.00 35 1036.8
20260502214804 58 118 2.6 4.3 0.00 0.00 0.00 14 1036.7